Starlink 30285

operational
NORAD ID: 57840 Int'l Des: 2023-141 Owner: SPXS Country: US Constellation: starlink
LEOCIRCULAR

Starlink 30285について

説明を読み込み中...

リアルタイム位置

3D地球を読み込み中...

次回通過

高度履歴

Altitude vs Time

uPlot chart will show altitude changes over time

軌道要素

1 57840U 23141A 25257.57487450 .00001448 00000-0 61006-4 0 9990
2 57840 53.1597 22.1812 0001122 63.4462 296.6653 15.30193755113363
Epoch: Sep 14, 2025 • Age: 21 hours

現在のステータス

高度 478.1 km
速度 7.63 km/s
衛星直下点 38.17°N, 6.54°E
打ち上げ日 Sep 12, 2023
運用期間 2 years
タイプ internet

技術仕様

分類 Payload
質量 730.00 kg
乾燥質量 700.00 kg
総質量 730.00 kg
長さ 0.30 m
直径 4.10 m
スパン 29.00 m
形状 Box + pan
製造者 SPXS
バスタイプ Starlink V2M
フェーズステータス In Orbit
所有者/国 SPXS/US

大規模コンステレーション

Loading constellations...